Regional Weather Roundup
Issued by NWS

Home | Current Version | Previous Version | Graphics & Text | Print | Product List | Glossary On
Versions: 1 2 3 4 5 6 7 8 9 10 11 12 13 14 15 16 17 18 19 20 21 22 23 24 25 26 27 28 29 30 31 32 33 34 35 36 37 38 39 40 41 42 43 44 45 46 47 48 49 50
000
ASUS43 KLOT 280606
RWRIL

ILLINOIS REGIONAL WEATHER ROUNDUP
NATIONAL WEATHER SERVICE CHICAGO/ROMEOVILLE IL
1200 AM CST WED JAN 28 2015

NOTE: "FAIR" INDICATES FEW OR NO CLOUDS BELOW 12,000 FEET WITH NO
SIGNIFICANT WEATHER AND/OR OBSTRUCTIONS TO VISIBILITY.

* THESE STATIONS ARE NOT UNDER NWS QUALITY CONTROL. THEY ALSO MAY NOT
  REPORT WEATHER SUCH AS PRECIPITATION OR FOG.

ILZ001-002-007-009-015-016-024-280700-
NORTHWEST ILLINOIS

CITY           SKY/WX    TMP DP  RH WIND       PRES   REMARKS
MOLINE         CLOUDY    27  22  81 S6        30.24F WCI  20
6HR MIN TEMP:  27; 6HR MAX TEMP:  28;

STERLING*      CLOUDY    18  12  79 SE5       30.25S WCI  11
SAVANNA*       CLOUDY    29  25  86 SE3       30.24F FOG
$$

ILZ003-004-008-010-011-017-018-280700-
NORTH CENTRAL ILLINOIS

CITY           SKY/WX    TMP DP  RH WIND       PRES   REMARKS
ROCKFORD       CLOUDY    23  17  78 S5        30.28R WCI  17
6HR MIN TEMP:  22; 6HR MAX TEMP:  30;

FREEPORT*      MOCLDY    23  21  89 SE3       30.26S
ROCHELLE*      MOCLDY    21  17  85 SE5       30.26F WCI  15
DE KALB*       MOCLDY    21  17  84 S6        30.25F WCI  14
PERU*          CLOUDY    24  22  93 SE5       30.27S WCI  18
$$

ILZ005-006-012>014-019>023-280700-
NORTHEAST ILLINOIS

CITY           SKY/WX    TMP DP  RH WIND       PRES   REMARKS
CHICAGO-OHARE  MOCLDY    24  18  77 CALM      30.25F
6HR MIN TEMP:  20; 6HR MAX TEMP:  26;

CHICAGO-MIDWAY MOCLDY    26  20  77 CALM      30.26S
6HR MIN TEMP:  24; 6HR MAX TEMP:  28;

AURORA         MOCLDY    22  16  78 CALM      30.27R
6HR MIN TEMP:  19; 6HR MAX TEMP:  28;

LANSING*       PTCLDY    18  16  93 CALM      30.27S
JOLIET*        PTCLDY    19  16  91 CALM      30.27F
WAUKEGAN       CLOUDY    22  19  89 CALM      30.24F
6HR MIN TEMP:  15; 6HR MAX TEMP:  24;

DUPAGE AIRPORT MOCLDY    20  16  84 CALM      30.24F
6HR MIN TEMP:  17; 6HR MAX TEMP:  26;

KANKAKEE*      CLEAR     19  17  92 CALM      30.28S
WHEELING       MOCLDY    23  18  81 CALM      30.28S
6HR MIN TEMP:  19; 6HR MAX TEMP:  26;

MORRIS*        PTCLDY    22  19  89 CALM      30.27S
ROMEOVILLE*    PTCLDY    22  18  85 CALM      30.26F
NORTHERLY ISL    N/A     28  19  69 E5          N/A  WCI  23
$$

LMZ740>746-280700-
SOUTHERN LAKE MICHIGAN

STATION/POSITION SKY/WX   TEMP    WIND        PRES    VSBY  WAVE
                          AIR SEA DIR/SP/G                  HT/PER
                          (F)     (DEG/KT/KT) (MB)    (MI)  (FT/S)
WAUKEGAN HARBOR            27      CALM  /  5   N/A
HARRISON CRIB              28      80/  3/  4   N/A
BURNHAM HARBOR             28      70/  1/  5   N/A
CALUMET HARBOR             27      30/  2/  3   N/A
MICHIGAN CITY              22     120/  5/  6   N/A
$$

ILZ025>027-034>036-040-047-049-050-058-095>099-280700-
WEST-CENTRAL ILLINOIS

CITY           SKY/WX    TMP DP  RH WIND       PRES   REMARKS
QUINCY         CLOUDY    29  26  89 SE10      30.22S FOG     WCI  20
GALESBURG*     CLOUDY    28  26  89 SE7       30.24S WCI  21
MACOMB*        CLOUDY    30  28  91 SE8       30.26R WCI  22
JACKSONVILLE*  PTCLDY    30  27  88 SE3       30.24F
PITTSFIELD*    CLEAR     29  27  92 SE3       30.24F FOG
$$

ILZ028>032-037-038-041>044-048-051>054-059>061-280700-
CENTRAL ILLINOIS

CITY           SKY/WX    TMP DP  RH WIND       PRES   REMARKS
PONTIAC        CLOUDY    28  23  84 E5        30.28R WCI  22
BLOOMINGTON    CLOUDY    29  26  88 SE6       30.26S WCI  23
DECATUR        CLEAR     23  21  92 E6        30.26F FOG     WCI  16
PEORIA         CLOUDY    31  24  75 SE6       30.26R WCI  25
6HR MIN TEMP:  31; 6HR MAX TEMP:  32;

LACON*         CLOUDY    29  24  82 CALM      30.26S
LINCOLN*       CLEAR     29  25  84 CALM      30.28R
SPRINGFIELD    CLEAR     27  23  85 SE6       30.26S WCI  20
6HR MIN TEMP:  27; 6HR MAX TEMP:  32;

TAYLORVILLE    CLEAR     28  25  86 E7        30.26F WCI  21
$$

ILZ033-039-045-046-055>057-062-063-280700-
EAST-CENTRAL ILLINOIS

CITY           SKY/WX    TMP DP  RH WIND       PRES   REMARKS
CHAMPAIGN      CLEAR     22  18  85 CALM      30.27S
DANVILLE*      CLEAR     20  17  91 CALM      30.25R
RANTOUL*       CLEAR     24  20  85 NE3       30.26S
MATTOON        CLEAR     22  19  89 CALM      30.26S
PARIS*         CLEAR     20  19  96 CALM      30.28S
$$

ILZ079-100>102-280700-
SOUTHWEST ILLINOIS

CITY           SKY/WX    TMP DP  RH WIND       PRES   REMARKS
ALTON          CLEAR     28  27  94 CALM      30.26S FOG
BELLEVILLE     CLEAR     25  25  99 E2        30.25S
CAHOKIA*       CLEAR     28  26  92 CALM      30.26R
SPARTA*        CLEAR     26  25  94 E5        30.26S WCI  21
$$

ILZ064>066-069>071-074>076-080>082-084>086-088>090-092>094-280700-
SOUTH-CENTRAL ILLINOIS

CITY           SKY/WX    TMP DP  RH WIND       PRES   REMARKS
CARBONDALE     CLEAR     29  25  85 E5        30.26S WCI  24
6HR MIN TEMP:  27; 6HR MAX TEMP:  37;

CAIRO*         CLEAR     34  30  84 CALM      30.25F
EFFINGHAM*     CLEAR     27  21  78 NE3       30.29S
MARION         CLEAR     30  28  93 CALM      30.27R
MT. VERNON     CLEAR     28  21  74 E5        30.27S WCI  23
CENTRALIA*     CLEAR     27  24  89 CALM      30.26S FOG
SALEM*         CLEAR     30  26  85 E3        30.26S
METROPOLIS*    CLEAR     28  28 100 CALM      30.25S FOG
$$

ILZ067-068-072-073-078-083-087-091-280700-
SOUTHEAST ILLINOIS

CITY           SKY/WX    TMP DP  RH WIND       PRES   REMARKS
LAWRENCEVILLE  CLOUDY    28  24  85 NE5       30.30R WCI  23
FLORA*         CLEAR     26  24  93 NE3       30.29R
FAIRFIELD*     CLEAR     28  26  92 NE3       30.27S FOG
HARRISBURG*    CLEAR     30  29  96 NE3       30.28S
ROBINSON*      CLEAR     24  23  98 CALM      30.31R FOG
CARMI*         MOCLDY    31  29  93 NE5       30.28R WCI  26
$$

ABBREVIATIONS USED IN REMARKS
   TC - TEMPERATURE IN CELSIUS
  WCI - WIND CHILL INDEX
   HX - HEAT INDEX
  VSB - VISIBILITY
$$



USA.gov is the U.S. government's official web portal to all federal, state and local government web resources and services.